KD7RJ Weather Reports


time (UTC)temp
F
wind
direction
speed
knots
gust
knots
rain 1hr
in
rain 24hr
in
rain mn
in
humidity
%
barometer
mb
20260509103023 48 55 0.0 0.0 0.00 0.04 0.02 92 1021.0
20260509101503 49 55 0.0 0.0 0.00 0.04 0.02 91 1021.0
20260509100002 49 55 0.0 0.0 0.00 0.04 0.02 91 1021.0
20260509094600 50 55 0.0 0.0 0.00 0.04 0.02 91 1020.9
20260509093043 50 55 0.0 0.0 0.00 0.04 0.02 90 1021.1
20260509091542 51 55 0.0 0.0 0.00 0.04 0.02 89 1021.2
20260509090040 51 55 0.0 0.0 0.00 0.04 0.02 90 1021.2
20260509084538 52 55 0.0 0.0 0.00 0.04 0.02 89 1021.3
20260509083040 52 55 0.0 0.0 0.00 0.04 0.02 88 1021.5
20260509080032 53 55 0.0 0.0 0.00 0.04 0.02 86 1021.6
20260509074531 54 55 0.0 0.0 0.00 0.04 0.02 85 1021.7
20260509073027 54 55 0.0 0.0 0.00 0.04 0.02 84 1021.7
20260509070026 55 55 0.0 0.0 0.00 0.04 0.02 82 1021.7
20260509064526 56 55 0.0 0.0 0.00 0.04 0.02 83 1021.7
20260509063024 55 55 0.0 0.0 0.00 0.04 0.02 83 1021.8
20260509060108 57 55 0.0 0.0 0.00 0.04 0.02 79 1021.5
20260509054613 57 55 0.0 0.0 0.00 0.04 0.02 78 1021.5
20260509053038 58 55 0.0 2.6 0.00 0.04 0.02 77 1021.3
20260509051538 58 63 0.9 5.2 0.00 0.04 0.02 76 1021.3
20260509050020 59 44 0.0 4.3 0.00 0.04 0.02 74 1021.2
20260509044515 59 42 0.9 6.1 0.00 0.04 0.02 73 1021.1
20260509043059 60 66 0.0 5.2 0.00 0.04 0.02 72 1020.9
20260509041550 61 57 1.7 7.0 0.00 0.04 0.02 71 1020.8
20260509040030 61 38 0.9 4.3 0.00 0.04 0.02 70 1020.7
20260509034528 62 84 1.7 6.1 0.00 0.04 0.02 68 1020.6
20260509033008 63 51 0.0 5.2 0.00 0.04 0.02 66 1020.6
20260509031504 64 55 0.0 7.0 0.00 0.04 0.02 63 1020.5
20260509030046 64 38 0.0 5.2 0.00 0.04 0.02 62 1020.4
20260509024544 64 44 1.7 7.0 0.00 0.04 0.02 61 1020.3
20260509023034 65 55 1.7 9.6 0.00 0.04 0.02 59 1020.2
20260509021527 66 56 0.9 6.1 0.00 0.04 0.02 57 1020.1
20260509020026 66 41 0.0 7.8 0.00 0.04 0.02 56 1020.1
20260509014525 67 32 1.7 7.8 0.00 0.04 0.02 54 1020.1
20260509013034 68 26 0.0 0.0 0.00 0.04 0.02 54 1020.1
20260509011516 69 33 0.0 0.0 0.00 0.04 0.02 53 1020.2
20260509010013 71 42 1.7 7.8 0.00 0.04 0.02 49 1020.3
20260509004513 71 360 1.7 8.7 0.00 0.04 0.02 49 1020.2
20260509003100 71 332 0.0 9.6 0.00 0.04 0.02 48 1020.3
20260509001554 71 287 0.0 8.7 0.00 0.04 0.02 49 1020.3
20260509000035 70 331 0.9 7.8 0.00 0.04 0.02 49 1020.4
20260508234534 71 266 0.0 7.0 0.02 0.04 0.02 47 1020.5
20260508233016 72 313 0.0 8.7 0.02 0.04 0.02 48 1020.4
20260508231515 71 342 1.7 8.7 0.02 0.04 0.02 47 1020.4
20260508230101 70 319 0.9 5.2 0.02 0.04 0.02 47 1020.5
20260508224606 72 246 1.7 7.0 0.00 0.02 0.00 46 1020.4
20260508223035 71 15 2.6 7.8 0.00 0.02 0.02 49 1020.6
20260508221534 69 309 0.0 5.2 0.00 0.02 0.02 50 1020.7
20260508220018 68 337 0.9 7.8 0.02 0.02 0.02 50 1020.8
20260508214517 68 270 0.9 9.6 0.02 0.02 0.02 50 1020.8
20260508213116 67 230 0.0 7.0 0.02 0.02 0.02 54 1020.8
20260508211559 66 222 0.0 7.8 0.02 0.02 0.02 53 1020.8
20260508210041 65 218 1.7 7.8 0.00 0.00 0.00 53 1020.8
20260508204543 66 254 0.0 4.3 0.00 0.00 0.00 53 1020.8
20260508203023 64 187 0.0 7.0 0.00 0.00 0.00 55 1020.8
20260508201528 64 239 0.0 6.1 0.00 0.00 0.00 55 1020.9
20260508200004 63 211 0.0 5.2 0.00 0.00 0.00 56 1021.0
20260508194504 62 271 0.0 4.3 0.00 0.00 0.00 57 1021.0
20260508193117 62 254 0.0 5.2 0.00 0.00 0.00 58 1021.1
20260508191549 62 240 0.9 5.2 0.00 0.00 0.00 59 1021.1
20260508190035 61 259 2.6 7.0 0.00 0.00 0.00 58 1021.2
20260508184528 61 222 0.0 7.8 0.00 0.00 0.00 61 1021.3
20260508183010 59 247 3.5 8.7 0.00 0.00 0.00 61 1021.3
20260508181519 58 207 2.6 6.1 0.00 0.00 0.00 66 1021.2
20260508180059 58 294 1.7 6.1 0.00 0.00 0.00 67 1021.2
20260508174606 59 227 2.6 6.1 0.00 0.00 0.00 65 1021.1
20260508173031 57 210 3.5 7.0 0.00 0.00 0.00 71 1020.9
20260508171531 55 258 0.9 6.1 0.00 0.00 0.00 73 1020.8
20260508170014 55 257 2.6 6.1 0.00 0.00 0.00 72 1020.7
20260508164510 55 178 0.9 5.2 0.00 0.00 0.00 73 1020.5
20260508163057 55 175 0.0 4.3 0.00 0.00 0.00 75 1020.1
20260508161601 55 175 1.7 5.2 0.00 0.00 0.00 75 1020.3
20260508160036 54 175 0.9 6.1 0.00 0.00 0.00 76 1020.1
20260508154532 54 144 0.9 7.0 0.00 0.00 0.00 79 1019.9
20260508153016 53 168 2.6 7.8 0.00 0.00 0.00 81 1019.9
20260508151528 53 96 0.0 5.2 0.00 0.00 0.00 82 1019.8
20260508150056 52 90 0.9 6.1 0.00 0.00 0.00 83 1019.9
20260508144555 52 79 0.9 4.3 0.00 0.00 0.00 84 1019.9
20260508143038 52 71 0.0 4.3 0.00 0.00 0.00 85 1019.9
20260508141536 51 56 0.0 3.5 0.00 0.00 0.00 87 1019.8
20260508140016 51 55 0.0 1.7 0.00 0.00 0.00 88 1019.5
20260508134514 50 55 0.0 0.0 0.00 0.00 0.00 89 1019.2
20260508133111 50 55 0.0 0.0 0.00 0.00 0.00 89 1019.1
20260508131554 50 55 0.0 0.0 0.00 0.00 0.00 89 1018.8
20260508130035 50 55 0.0 0.0 0.00 0.00 0.00 88 1018.4
20260508124534 50 55 0.0 0.0 0.00 0.00 0.00 87 1018.1
20260508123014 51 55 0.0 0.0 0.00 0.00 0.00 87 1017.9
20260508121513 51 55 0.0 0.0 0.00 0.00 0.00 88 1017.8
20260508120056 51 55 0.0 0.0 0.00 0.00 0.00 88 1017.7
20260508114604 51 55 0.0 0.0 0.00 0.00 0.00 88 1017.7
20260508113037 51 55 0.0 0.0 0.00 0.00 0.00 87 1017.4
20260508111531 51 55 0.0 0.0 0.00 0.00 0.00 87 1017.2
20260508110020 51 55 0.0 0.0 0.00 0.00 0.00 88 1017.0
20260508104517 51 55 0.0 0.0 0.00 0.00 0.00 88 1016.9